{"data":{"norad_id":63641,"intl_designator":"2025-083H","name":"STARLINK-33826","alt_names":[],"object_type":"PAYLOAD","status":"ACTIVE","operator":null,"country":"US","launch_date":"2025-04-25","launch_site_code":"AFETR","launch_vehicle":null,"mission":null,"orbit_class":"UNKNOWN","rcs_meters":null,"size_class":null,"mass_kg":null,"dimensions":null,"purposes":["comms"],"wikipedia_slug":null,"has_3d_model":false,"image_url":null,"decayed_at":null,"tle_current":{"epoch":"2026-09-20T05:56:38.605920Z","epoch_age_seconds":174275,"freshness":"STALE","line1":"1 63641U 25083H   26263.24766905  .00004015  00000+0  15534-3 0  9996","line2":"2 63641  43.0009 346.3094 0001197 267.8862  92.1853 15.27584029 79821","mean_motion":15.27584029,"eccentricity":0.0001197,"inclination_deg":43.0009,"raan_deg":346.3094,"arg_perigee_deg":267.8862,"mean_anomaly_deg":92.1853,"bstar":0.00015534,"rev_number":7982,"period_min":94.266500085279,"perigee_km":482.21574925914,"apogee_km":483.85831432235,"semimajor_km":6861.1740317907,"source":"CELESTRAK","updated_at":"2026-09-21T09:00:35.051940Z"}}}